Location: Harwich
(41.7160°N, 69.9939°W)
Time: 07:02:26
(UTC+02:00)

FO-29 - Visible Passes

Search period start: 19 September 2024 00:00
Search period end: 29 September 2024 00:00
Orbit: 801 x 1320 km, 98.6° (Epoch: 18 September)

Date Brightness Start Highest point End Pass type
(mag) Time Alt. Az. Time Alt. Az. Time Alt. Az.
19 Sep 11.7 06:37:31 10° NNE 06:40:56 26° NE 06:40:56 26° NE visible
19 Sep 11.1 08:22:30 10° N 08:27:23 35° NNW 08:27:23 35° NNW visible
20 Sep 12.3 05:44:12 10° NE 05:44:58 12° NE 05:44:58 12° NE visible
20 Sep 11.2 07:27:06 10° NNE 07:31:26 37° NNE 07:31:26 37° NNE visible
20 Sep 11.6 09:13:25 10° N 09:17:54 22° NW 09:17:54 22° NW visible
21 Sep 11.8 06:32:26 10° NNE 06:35:29 23° NE 06:35:29 23° NE visible
21 Sep 11.2 08:17:18 10° N 08:21:56 35° NNW 08:21:56 35° NNW visible
21 Sep 12.0 10:06:57 10° NW 10:07:49 10° NW 10:08:24 10° NW visible
22 Sep 12.4 05:39:21 10° NE 05:39:31 10° NE 05:39:31 10° NE visible
22 Sep 11.4 07:21:57 10° NNE 07:25:59 34° NNE 07:25:59 34° NNE visible
22 Sep 11.6 09:08:08 10° N 09:12:27 22° NW 09:12:27 22° NW visible
23 Sep 11.9 06:27:23 10° NNE 06:30:01 21° NE 06:30:01 21° NE visible
23 Sep 11.3 08:12:07 10° N 08:16:29 34° NNW 08:16:29 34° NNW visible
23 Sep 12.0 10:00:55 10° NW 10:02:46 11° NW 10:02:57 11° NW visible
24 Sep 11.5 07:16:50 10° NNE 07:20:31 31° NNE 07:20:31 31° NNE visible
24 Sep 11.6 09:02:53 10° N 09:06:59 23° NW 09:06:59 23° NW visible
25 Sep 12.0 06:22:20 10° NNE 06:24:33 19° NE 06:24:33 19° NE visible
25 Sep 11.3 08:06:56 10° N 08:11:01 32° N 08:11:01 32° N visible
25 Sep 12.0 09:55:15 10° NNW 09:57:29 12° NW 09:57:29 12° NW visible
26 Sep 11.6 07:11:42 10° NNE 07:15:03 28° NNE 07:15:03 28° NNE visible
26 Sep 11.6 08:57:39 10° N 09:01:31 23° NNW 09:01:31 23° NNW visible
27 Sep 12.1 06:17:18 10° NNE 06:19:05 17° NE 06:19:05 17° NE visible
27 Sep 11.4 08:01:46 10° N 08:05:33 30° N 08:05:33 30° N visible
27 Sep 12.0 09:49:45 10° NNW 09:52:01 12° NW 09:52:01 12° NW visible
28 Sep 11.7 07:06:36 10° NNE 07:09:34 25° NNE 07:09:34 25° NNE visible
28 Sep 11.6 08:52:25 10° N 08:56:02 23° NNW 08:56:02 23° NNW visible
